KLM163 EHAM-TNCC

Flight info

Callsign KLM163
Flight time N/A
Altitude 34000
Route IDRID L980 LAM L179 UGBET Q60 OKSAW DCT FELCA DCT FADZU DCT BANBA DCT ADARA/M083F340 DCT 51N020W 4930N03000W 45N040W 37N050W/M083F360 DCT AYTTE DCT TARMO/M083F380 DCT OPAUL/N0480F380 DCT SCAPA SCAPA1B
Aircraft B77W/H-SDE1E2E3FGHIJ2J3J4J5M1RWXY/LB1D1

Departure

Time 2026-05-07 08:31
Airport Amsterdam Airport Schiphol (EHAM)

Arrival

Time N/A
Airport Hato International Airport (TNCC)
Time Latitude Longitude Altitude Speed Heading
2026-05-07 08:03 52.31380 4.76732 4 ft 0 kts 123°
2026-05-07 08:17 52.31383 4.76723 4 ft 2 kts 134°
2026-05-07 08:17 52.31385 4.76710 5 ft 3 kts 212°
2026-05-07 08:18 52.31394 4.76722 5 ft 3 kts 161°
2026-05-07 08:18 52.31396 4.76721 6 ft 2 kts 111°
2026-05-07 08:18 52.31399 4.76695 6 ft 3 kts 73°
2026-05-07 08:18 52.31396 4.76676 7 ft 2 kts 88°
2026-05-07 08:19 52.31397 4.76633 5 ft 3 kts 91°
2026-05-07 08:19 52.31395 4.76603 4 ft 2 kts 64°
2026-05-07 08:19 52.31386 4.76578 7 ft 3 kts 39°
2026-05-07 08:19 52.31370 4.76561 6 ft 2 kts 32°
2026-05-07 08:20 52.31367 4.76557 6 ft 0 kts 34°
2026-05-07 08:22 52.31378 4.76570 5 ft 6 kts 34°
2026-05-07 08:22 52.31435 4.76629 4 ft 13 kts 32°
2026-05-07 08:22 52.31517 4.76659 4 ft 13 kts 341°
2026-05-07 08:23 52.31548 4.76535 4 ft 13 kts 268°
2026-05-07 08:23 52.31543 4.76392 4 ft 13 kts 267°
2026-05-07 08:23 52.31538 4.76249 4 ft 13 kts 267°
2026-05-07 08:23 52.31532 4.76105 4 ft 14 kts 263°
2026-05-07 08:24 52.31527 4.75910 4 ft 22 kts 267°
2026-05-07 08:24 52.31518 4.75613 4 ft 31 kts 267°
2026-05-07 08:24 52.31506 4.75243 3 ft 32 kts 265°
2026-05-07 08:24 52.31492 4.74888 4 ft 30 kts 267°
2026-05-07 08:25 52.31480 4.74557 4 ft 22 kts 264°
2026-05-07 08:25 52.31469 4.74342 4 ft 14 kts 248°
2026-05-07 08:25 52.31387 4.74284 4 ft 14 kts 182°
2026-05-07 08:25 52.31288 4.74273 4 ft 15 kts 184°
2026-05-07 08:26 52.31000 4.74246 4 ft 27 kts 183°
2026-05-07 08:26 52.30802 4.74226 4 ft 29 kts 184°
2026-05-07 08:26 52.30765 4.74222 4 ft 29 kts 184°
2026-05-07 08:27 52.30619 4.74215 4 ft 16 kts 183°
2026-05-07 08:27 52.30509 4.74203 4 ft 16 kts 180°
2026-05-07 08:27 52.30400 4.74197 4 ft 16 kts 187°
2026-05-07 08:27 52.30295 4.74144 4 ft 16 kts 201°
2026-05-07 08:28 52.30181 4.74077 4 ft 21 kts 196°
2026-05-07 08:28 52.30035 4.74001 4 ft 22 kts 215°
2026-05-07 08:28 52.30002 4.73952 4 ft 2 kts 227°
2026-05-07 08:28 52.29971 4.73877 4 ft 17 kts 242°
2026-05-07 08:29 52.29913 4.73654 4 ft 22 kts 261°
2026-05-07 08:29 52.29921 4.73420 4 ft 17 kts 296°
2026-05-07 08:29 52.29988 4.73395 4 ft 12 kts 11°
2026-05-07 08:29 52.30078 4.73483 4 ft 16 kts
2026-05-07 08:30 52.30178 4.73503 3 ft 8 kts 45°
2026-05-07 08:30 52.30197 4.73594 3 ft 11 kts 85°
2026-05-07 08:30 52.30230 4.73732 2 ft 15 kts 31°
2026-05-07 08:30 52.30318 4.73748 0 ft 21 kts
2026-05-07 08:31 52.30678 4.73780 3 ft 88 kts
2026-05-07 08:31 52.31517 4.73856 2 ft 152 kts
2026-05-07 08:31 52.32718 4.73966 213 ft 183 kts
2026-05-07 08:31 52.34013 4.74082 742 ft 188 kts 359°
2026-05-07 08:32 52.35307 4.73696 1351 ft 191 kts 343°
2026-05-07 08:32 52.36564 4.72992 1903 ft 199 kts 343°
2026-05-07 08:32 52.37958 4.72247 2087 ft 221 kts 343°
2026-05-07 08:32 52.39337 4.70950 2333 ft 242 kts 314°
2026-05-07 08:33 52.40166 4.68509 2775 ft 255 kts 284°
2026-05-07 08:33 52.40148 4.65586 3366 ft 263 kts 254°
2026-05-07 08:33 52.39449 4.62791 4019 ft 268 kts 244°
2026-05-07 08:33 52.38590 4.60085 4792 ft 269 kts 243°
2026-05-07 08:34 52.37694 4.57401 5471 ft 271 kts 242°
2026-05-07 08:34 52.36770 4.54719 6271 ft 270 kts 241°
2026-05-07 08:34 52.35839 4.52046 6943 ft 271 kts 240°
2026-05-07 08:34 52.34900 4.49351 7586 ft 274 kts 240°
2026-05-07 08:35 52.33949 4.46624 8221 ft 277 kts 240°